GW0791 Weather Reports


Display with metric or nautical units.
time (UTC)temp
F
wind
direction
speed
MPH
gust
MPH
rain 1hr
in
rain 24hr
in
rain mn
in
humidity
%
barometer
mb
20260505054535 54 360 0.0 0.0 0.00 0.00 0.00 91 1010.9
20260505053030 54 360 0.0 0.0 0.00 0.00 0.00 90 1010.9
20260505051525 54 360 0.0 0.0 0.00 0.00 0.00 90 1010.9
20260505041531 55 360 0.0 0.0 0.00 0.00 0.00 87 1010.2
20260505040032 56 360 0.0 0.0 0.00 0.00 0.00 87 1010.0
20260505034523 56 344 0.0 0.0 0.00 0.00 0.00 86 1010.0
20260505033021 57 344 0.0 0.0 0.00 0.00 0.00 85 1010.1
20260505031533 57 360 0.0 0.0 0.00 0.00 0.00 85 1010.0
20260505030016 58 360 0.0 0.0 0.00 0.00 0.00 84 1010.1
20260505024516 58 345 0.0 0.0 0.00 0.00 0.00 83 1010.0
20260505023015 59 360 0.0 0.0 0.00 0.00 0.00 82 1010.0
20260505021515 60 360 0.0 0.0 0.00 0.00 0.00 81 1009.8
20260505020013 61 343 0.0 0.0 0.00 0.00 0.00 78 1009.7
20260505014512 62 360 0.0 0.0 0.00 0.00 0.00 77 1009.7
20260505013011 64 360 0.0 0.0 0.00 0.00 0.00 75 1009.5
20260505011511 65 360 0.0 0.0 0.00 0.00 0.00 74 1009.5
20260505010009 66 360 0.0 0.0 0.00 0.00 0.00 71 1009.5
20260505004508 67 360 0.0 0.0 0.00 0.00 0.00 70 1009.4
20260505003007 69 346 0.0 0.0 0.00 0.00 0.00 68 1009.3
20260505001507 70 345 0.0 0.0 0.00 0.00 0.00 67 1009.3
20260505000006 71 345 0.0 0.0 0.00 0.00 0.00 64 1009.4
20260504234503 73 360 0.0 2.0 0.00 0.00 0.00 61 1009.5
20260504233002 74 342 0.0 3.0 0.00 0.00 0.00 55 1009.3
20260504231502 75 60 0.0 4.0 0.00 0.00 0.00 52 1009.3
20260504230034 76 43 0.0 6.0 0.00 0.00 0.00 50 1009.2
20260504224534 76 222 2.0 4.0 0.00 0.00 0.00 52 1009.3
20260504223037 76 29 0.0 5.0 0.00 0.00 0.00 53 1009.4
20260504221527 76 183 1.0 7.0 0.00 0.00 0.00 50 1009.7
20260504220024 77 169 1.0 7.0 0.00 0.00 0.00 51 1009.7
20260504214526 77 278 2.0 6.0 0.00 0.00 0.00 50 1009.9
20260504213032 77 190 0.0 12.0 0.00 0.00 0.00 49 1009.9
20260504211524 78 218 2.0 6.0 0.00 0.00 0.00 50 1009.9
20260504210016 77 265 2.0 6.0 0.00 0.00 0.00 51 1010.0
20260504204532 77 130 0.0 5.0 0.00 0.00 0.00 52 1010.1
20260504203007 75 295 2.0 11.0 0.00 0.00 0.00 55 1010.3
20260504201506 75 343 4.0 10.0 0.00 0.00 0.00 55 1010.5
20260504200003 74 65 1.0 10.0 0.00 0.00 0.00 55 1010.8
20260504194603 74 290 2.0 11.0 0.00 0.00 0.00 56 1010.9
20260504193056 73 96 2.0 8.0 0.00 0.00 0.00 57 1011.0
20260504191557 71 344 3.0 9.0 0.00 0.00 0.00 60 1011.4
20260504190050 70 58 3.0 8.0 0.00 0.00 0.00 61 1011.5
20260504184549 67 11 2.0 6.0 0.00 0.00 0.00 68 1012.1
20260504183046 69 154 1.0 9.0 0.00 0.00 0.00 62 1013.1
20260504181547 70 360 1.0 13.0 0.00 0.00 0.00 56 1012.4
20260504180046 73 133 3.0 9.0 0.00 0.00 0.00 53 1012.0
20260504174545 72 207 3.0 11.0 0.00 0.00 0.00 54 1011.7
20260504173037 70 17 2.0 6.0 0.00 0.00 0.00 62 1011.8
20260504171535 68 360 2.0 8.0 0.00 0.00 0.00 64 1012.1
20260504120105 47 360 1.0 4.0 0.00 0.00 0.00 90 1014.9
20260504081529 44 360 0.0 0.0 0.00 0.00 0.00 85 1015.3